Terminal Aerodrome Forecast
Issued by NWS Mt. Holly, NJ

Home | Current Version | Previous Version | Text Only | Print | Product List | Glossary On
Versions: 1 2 3 4 5 6 7 8 9 10 11 12 13 14 15 16 17 18 19 20 21 22 23 24 25 26 27 28 29 30 31 32 33 34 35 36 37 38 39 40 41 42 43 44 45 46 47 48 49 50
000
FTAK31 PANC 260413 AAD
TAFABE
TAF AMD
PABE 260413Z 2604/2624 20020KT 3SM -SN BR SCT005 OVC009
      WS020/23045KT
     FM260700 21015KT P6SM VCSH SCT008 OVC015
     FM261800 19007KT 3SM -SHSN BKN008 OVC012=

USA.gov is the U.S. government's official web portal to all federal, state and local government web resources and services.